Wind_Speed
40 41 41 41 41 41 42 42 42 42 42 42 42 42 43 43 43 44 44 45 45 45 45 45 46 46 45 44 44 43 42 41 41 42 42 43 43 43
40 41 42 42 42 42 42 43 43 43 43 43 43 42 43 43 43 43 44 45 46 46 46 46 45 45 44 43 43 42 42 41 42 42 42 42 43 43
41 40 40 41 41 42 43 43 43 43 43 42 43 43 44 44 45 45 46 46 46 46 46 45 45 44 43 42 42 42 42 42 42 42 42 43 43 42
41 40 40 40 41 42 43 43 43 43 43 43 43 44 44 44 45 46 46 47 47 46 45 44 44 43 43 43 43 42 42 42 43 43 43 43 42 41
40 40 40 40 41 42 42 43 43 42 42 43 43 43 43 44 44 44 44 45 45 44 43 43 43 43 43 42 42 42 43 43 43 43 43 42 41 40
38 39 39 40 41 41 41 42 41 41 41 42 42 42 43 43 43 43 42 42 42 42 42 42 42 41 41 42 42 43 43 43 42 42 41 40 39 39
38 38 39 40 41 41 41 41 41 40 41 41 41 41 42 43 43 42 42 42 41 41 41 40 40 40 40 41 41 41 41 41 41 40 39 38 39 38
39 40 41 41 41 41 41 40 40 40 40 41 41 41 41 41 42 42 42 41 41 40 40 40 40 39 39 39 39 39 39 39 38 38 38 38 38 38
41 41 42 42 41 41 41 40 40 40 40 40 39 40 40 40 41 41 41 40 40 39 39 38 38 37 37 37 37 37 37 36 36 36 36 37 37 36
42 42 42 42 41 41 41 41 40 40 40 40 39 39 39 39 39 40 39 39 38 37 37 36 36 36 36 35 35 35 35 35 34 34 34 34 34 34
43 43 42 41 41 41 41 40 40 39 39 39 38 37 37 37 38 38 37 37 36 35 35 35 34 35 35 34 33 33 33 33 32 33 33 33 32 32
42 42 41 40 39 40 40 40 39 39 39 38 38 37 36 36 36 36 36 36 36 34 33 33 33 33 33 32 32 32 32 31 32 32 32 32 31 30
42 42 42 41 39 39 39 39 38 38 38 37 37 36 36 35 35 35 36 36 35 34 33 32 32 32 32 31 31 31 31 31 31 31 30 30 29 29
40 41 41 40 39 39 39 38 38 37 37 37 37 36 35 35 35 35 36 35 34 34 33 32 32 32 31 31 30 31 31 31 30 29 29 29 28 28
39 39 39 39 38 37 37 36 36 36 37 37 36 36 36 36 36 35 35 34 33 33 33 32 31 32 32 31 30 30 30 30 29 28 28 28 27 27
38 38 38 37 37 36 36 36 36 36 36 36 37 36 36 36 36 35 34 34 33 33 32 32 32 32 31 30 30 30 29 28 27 27 27 26 26 26
37 36 36 36 36 37 36 36 36 36 37 36 36 35 35 35 35 35 34 33 33 33 32 32 31 31 29 29 29 29 28 27 26 26 26 25 25 25
36 36 36 36 36 37 37 37 37 36 36 36 36 36 35 35 34 34 34 33 33 32 32 31 31 30 29 29 28 28 27 26 26 25 24 23 23 23
35 35 35 35 35 36 36 36 36 36 35 35 35 34 34 33 33 33 33 33 32 32 31 31 30 30 29 28 27 26 26 26 26 24 23 22 21 21
33 33 34 34 34 34 33 33 33 34 34 34 34 33 33 33 33 32 32 32 32 32 31 30 30 29 28 27 26 25 25 25 25 24 22 21 21 20
32 31 31 31 31 32 32 32 32 32 33 33 32 32 32 32 32 31 32 32 31 31 30 29 28 28 27 27 25 25 25 24 23 22 22 21 21 20
30 30 29 29 29 30 31 31 32 32 32 32 32 32 32 32 32 31 32 32 31 30 29 28 28 27 27 25 24 24 23 22 22 21 21 21 21 21
28 28 28 28 28 28 28 29 29 30 31 31 31 31 31 31 31 31 31 30 30 29 28 27 26 26 26 25 24 24 23 22 22 22 21 20 20 20
Wind_Direction
259 260 261 261 263 265 267 268 270 272 273 274 275 276 276 277 278 279 279 281 282 284 284 285 286 286 286 286 287 287 286 288 287 287 287 287 286 285
261 262 261 261 263 265 267 268 270 272 273 274 275 276 278 278 278 280 281 282 282 284 284 284 286 285 286 286 286 286 286 287 288 288 288 287 286 285
262 262 262 262 263 265 267 268 269 271 273 274 275 277 278 278 278 279 281 282 283 285 285 284 285 285 285 286 286 286 287 288 289 289 288 286 285 284
261 261 262 262 264 265 267 268 269 271 273 274 275 276 278 278 279 280 281 283 284 284 284 284 285 285 285 285 286 286 287 288 288 288 287 286 285 284
261 261 261 263 264 265 267 269 270 271 273 274 275 276 277 278 279 281 282 282 283 284 284 284 283 284 284 285 285 285 286 287 287 286 285 285 284 284
260 262 262 264 265 266 268 269 271 272 273 274 275 276 277 278 279 281 283 283 284 284 284 284 284 284 284 284 285 286 286 287 287 285 284 283 284 284
262 263 264 264 266 267 268 269 271 273 273 274 275 276 277 278 279 281 283 284 284 285 285 285 284 283 283 284 285 285 286 287 286 285 283 283 284 284
263 264 265 266 267 268 269 269 270 272 273 274 275 277 278 279 280 281 283 285 285 285 286 286 285 285 284 284 285 286 287 287 286 285 284 285 285 285
264 265 265 266 267 268 268 269 270 271 272 274 276 277 278 279 280 282 283 284 285 284 284 285 285 286 286 286 287 287 287 287 286 286 287 287 287 286
264 265 266 267 267 268 268 269 270 271 273 274 275 277 278 279 280 281 283 283 284 283 283 284 285 285 285 285 287 288 288 287 287 288 288 288 288 286
264 265 267 267 266 267 268 269 271 272 272 272 274 276 278 280 280 281 282 283 283 283 284 285 286 286 286 286 287 288 288 288 289 290 289 289 287 287
263 264 265 265 265 266 267 268 270 271 272 272 274 275 278 280 280 281 281 282 283 283 284 285 286 286 285 286 287 287 288 289 290 289 289 289 288 288
263 264 264 264 265 265 267 267 268 269 270 272 273 275 278 280 282 282 282 281 282 282 283 284 285 286 286 286 286 287 288 290 290 290 290 289 288 288
265 264 264 263 264 265 266 267 267 268 269 271 272 274 277 280 282 282 281 280 280 281 282 283 285 285 285 286 286 287 288 290 290 290 289 289 290 290
267 266 263 263 263 264 265 265 267 269 270 271 272 275 278 280 281 281 280 280 280 281 281 282 283 283 284 284 285 287 289 289 289 290 289 289 289 291
266 264 263 262 262 262 264 265 267 269 270 270 273 276 277 278 278 279 278 278 279 280 280 280 282 283 282 282 283 286 288 288 288 289 291 290 289 290
265 264 262 262 262 262 264 266 267 268 269 270 273 275 277 276 276 277 277 276 277 278 277 279 281 282 280 281 282 284 286 286 287 290 291 290 289 291
263 263 263 263 262 263 264 266 266 267 269 269 271 274 275 275 276 276 275 276 276 276 276 278 279 280 279 280 280 281 283 285 288 290 290 289 290 291
263 262 263 263 263 264 265 266 267 268 269 270 272 272 273 273 275 276 275 275 275 275 276 276 278 278 278 278 277 279 283 285 287 288 287 288 289 290
264 263 263 263 263 264 265 266 267 268 268 269 270 270 272 273 274 275 275 275 275 276 275 275 276 276 275 276 277 280 282 284 284 284 285 286 287 288
264 264 265 264 264 264 264 265 267 266 266 267 268 270 272 273 273 274 274 274 274 275 274 272 272 273 273 275 278 280 281 281 282 282 283 284 284 286
264 264 265 265 265 264 264 265 266 264 264 266 267 268 270 271 272 272 273 274 272 272 271 270 270 271 272 274 276 278 278 278 279 281 283 283 284 285
263 263 264 265 265 265 266 266 266 266 266 265 265 267 269 271 271 271 273 273 271 270 268 267 267 268 269 271 274 275 276 275 275 278 281 282 284 286
Height
5689 5689 5690 5691 5691 5692 5693 5693 5694 5694 5694 5694 5693 5691 5690 5688 5687 5685 5684 5682 5680 5678 5675 5673 5670 5667 5664 5662 5659 5656 5653 5651 5648 5645 5643 5640 5638 5636
5678 5678 5679 5680 5681 5681 5682 5682 5682 5682 5682 5683 5681 5680 5678 5677 5675 5674 5672 5670 5668 5666 5663 5661 5658 5655 5653 5650 5648 5645 5643 5640 5637 5635 5632 5629 5627 5624
5667 5668 5669 5669 5670 5671 5671 5671 5671 5671 5671 5671 5670 5668 5666 5664 5663 5661 5660 5658 5656 5653 5651 5648 5646 5643 5641 5639 5637 5635 5632 5629 5627 5624 5621 5619 5616 5613
5657 5658 5658 5659 5659 5660 5660 5660 5660 5659 5659 5659 5658 5656 5655 5653 5651 5649 5647 5645 5643 5641 5639 5636 5634 5632 5630 5628 5625 5623 5621 5618 5616 5613 5610 5608 5605 5602
5646 5647 5647 5648 5648 5649 5648 5648 5648 5648 5647 5647 5646 5645 5643 5641 5639 5637 5634 5632 5630 5628 5626 5624 5622 5620 5618 5616 5614 5612 5609 5607 5604 5602 5599 5596 5594 5592
5636 5637 5637 5637 5638 5638 5637 5637 5636 5636 5635 5635 5634 5633 5631 5629 5627 5625 5623 5620 5618 5616 5614 5613 5611 5609 5607 5605 5603 5600 5598 5595 5593 5591 5588 5586 5583 5581
5626 5626 5626 5627 5626 5626 5626 5626 5625 5625 5624 5623 5623 5621 5620 5617 5615 5613 5611 5609 5607 5605 5603 5601 5599 5598 5596 5594 5591 5589 5586 5584 5582 5579 5577 5575 5573 5570
5616 5616 5616 5616 5616 5615 5615 5615 5614 5614 5613 5613 5612 5610 5608 5606 5604 5602 5600 5598 5597 5595 5592 5590 5588 5587 5585 5583 5581 5578 5576 5573 5571 5569 5566 5564 5562 5560
5605 5605 5605 5604 5604 5604 5604 5604 5603 5603 5602 5601 5600 5599 5597 5596 5594 5592 5589 5587 5586 5584 5582 5580 5578 5576 5574 5572 5570 5568 5566 5563 5561 5558 5556 5554 5552 5549
5593 5593 5593 5593 5592 5593 5593 5593 5592 5592 5591 5591 5590 5589 5587 5585 5583 5581 5579 5578 5576 5574 5572 5571 5568 5566 5564 5563 5561 5558 5556 5554 5551 5549 5547 5544 5542 5540
5581 5581 5581 5582 5582 5582 5582 5582 5582 5581 5580 5580 5579 5578 5576 5574 5573 5571 5570 5568 5567 5565 5563 5561 5559 5557 5555 5553 5551 5549 5547 5544 5542 5540 5537 5535 5533 5531
5570 5570 5570 5570 5570 5570 5570 5571 5571 5571 5570 5569 5568 5568 5566 5565 5563 5561 5560 5558 5557 5556 5554 5552 5550 5548 5546 5545 5543 5540 5538 5536 5534 5531 5529 5526 5524 5522
5557 5558 5558 5559 5559 5559 5559 5560 5560 5560 5559 5559 5558 5558 5556 5555 5553 5552 5550 5549 5548 5546 5545 5543 5541 5539 5537 5536 5535 5532 5530 5528 5525 5523 5520 5518 5516 5514
5545 5546 5546 5547 5548 5548 5548 5549 5549 5549 5549 5549 5548 5548 5547 5546 5544 5542 5541 5539 5538 5537 5536 5534 5533 5531 5529 5528 5526 5524 5522 5519 5517 5515 5512 5510 5508 5506
5533 5534 5535 5535 5536 5537 5538 5538 5539 5538 5538 5538 5539 5538 5537 5536 5535 5533 5532 5530 5529 5528 5527 5525 5524 5523 5521 5520 5518 5516 5514 5511 5509 5507 5505 5502 5500 5499
5522 5522 5523 5524 5525 5527 5528 5528 5528 5528 5528 5529 5529 5528 5527 5526 5525 5524 5523 5522 5521 5520 5518 5517 5515 5514 5513 5511 5510 5508 5506 5504 5502 5499 5497 5495 5493 5491
5510 5511 5512 5513 5514 5516 5517 5517 5517 5518 5518 5518 5518 5518 5517 5516 5515 5515 5514 5513 5512 5511 5510 5508 5507 5506 5505 5504 5502 5500 5498 5496 5494 5492 5490 5488 5486 5484
5499 5500 5501 5502 5503 5504 5506 5506 5507 5507 5508 5508 5508 5508 5507 5507 5506 5505 5504 5504 5503 5502 5501 5500 5499 5498 5497 5496 5495 5493 5491 5489 5487 5485 5484 5482 5480 5478
5489 5490 5491 5492 5493 5494 5495 5495 5496 5497 5497 5498 5498 5498 5497 5497 5496 5496 5495 5494 5494 5493 5492 5491 5490 5489 5489 5488 5487 5485 5484 5482 5480 5479 5477 5476 5474 5472
5479 5480 5481 5481 5482 5483 5484 5485 5486 5487 5487 5488 5488 5488 5488 5487 5487 5486 5486 5485 5485 5484 5483 5483 5482 5481 5480 5480 5479 5478 5477 5475 5474 5472 5471 5470 5468 5466
5469 5470 5470 5471 5472 5473 5474 5475 5475 5476 5477 5477 5478 5478 5478 5478 5478 5477 5477 5476 5476 5475 5475 5474 5473 5473 5472 5472 5472 5471 5470 5468 5467 5466 5465 5464 5462 5461
5460 5460 5461 5461 5462 5463 5463 5464 5465 5466 5467 5467 5468 5468 5468 5468 5468 5468 5468 5467 5467 5466 5466 5466 5465 5465 5465 5465 5464 5464 5463 5462 5461 5460 5459 5458 5456 5455
5451 5451 5452 5452 5453 5453 5454 5454 5455 5456 5457 5457 5458 5458 5458 5458 5458 5458 5458 5458 5458 5458 5458 5458 5458 5458 5457 5457 5457 5456 5455 5455 5454 5453 5453 5451 5450 5449